Siga o Apolo11 no Facebook   Siga o Apolo11 no Twiiter
Ciência, Espaço e Tecnologia




Elementos Keplerianos formato Two Line

Para que um programa de rastreio possa saber a localização exata de qualquer satélite no espaço e assim poder rastreá-lo corretamente, é necessário que ele seja carregado com algumas informações.

Estas informações são chamadas de Elementos Orbitais ou Elementos Keplerianos e consistem em 2 linhas com dezenas de números. Esses números nada mais são que os parâmetros orbitais do satélite, tais como altitude, atitude, excentricidade da órbita, número de órbitas por dia, etc.

Com base nestas informações o programa é capaz de determinar com bastante exatidão a posição de qualquer satélite no espaço e nos informar em qual horário este estará dentro do alcance de nossa estação. Para que isso seja feito com precisão é necessário que os dados estejam sempre bem atualizadas.

Devido aos parâmetros orbitais serem descritos em 2 linhas, estes formato é também conhecido internacionalmente por 2line (leia-se Two Line”).

Para atualizar seu programa de rastreio basta copiar os dados disponibilizados e fornece-los ao programa. Nossos elementos orbitais são atualizados diariamente.

NOAATodos os satélites ambientais da série NOAA
30 DiasSatélites lançados nos últimos 30 dias
ISSSatélites e foguetes relacionados à Estação Espacial Internacional
HAMSatélites construídos por radiomadores
CUBESatélites tipo cubo, com 10 centímetros de lado
METEOSatélites voltados à previsão do tempo
EDUSatélites construídos e operados por universidades
VIS100 satélites mais brilhantes que podem ser vistos a olho nú



Satélites série NOAA
NOAA 1 [-]              
1 04793U 70106A   13196.39605213 -.00000037  00000-0  60535-4 0  7022
2 04793 102.0181 234.6906 0032537 124.0984 317.4232 12.53957635949578
NOAA 2 [-]              
1 06235U 72082A   13196.47949459 -.00000022  00000-0  13242-3 0  7994
2 06235 101.4664 177.3063 0003179 247.7646 257.9884 12.53038878863996
NOAA 3 [-]              
1 06920U 73086A   13196.48933228 -.00000020  00000-0  17154-3 0  6924
2 06920 101.7408 184.0190 0006047 242.0408 263.7578 12.40336820796919
NOAA 4 [-]              
1 07529U 74089A   13196.51584203 -.00000048  00000-0 -30837-4 0  7020
2 07529 101.4450 185.1839 0008367 286.4684 219.4156 12.53082889768585
NOAA 5 [-]              
1 09057U 76077A   13196.49086712 -.00000058  00000-0 -11455-3 0  5827
2 09057 101.7532 210.6264 0010354  89.7628  78.9715 12.37771786670746
TIROS N [P]             
1 11060U 78096A   13198.09369319  .00000067  00000-0  55230-4 0  3862
2 11060  99.0450 210.2572 0011797  97.4830 303.7069 14.17788752 10180
NOAA 6 [P]              
1 11416U 79057A   13196.53077471  .00000124  00000-0  61579-4 0  5978
2 11416  98.4447 188.0751 0010957 162.7136 343.7915 14.32539833774886
NOAA 7 [-]              
1 12553U 81059A   13196.46704178 -.00000002  00000-0  20936-4 0  6798
2 12553  98.8493 147.4650 0011735  20.8352 128.2559 14.16958012656414
NOAA 8 [-]              
1 13923U 83022A   13196.51521307  .00000083  00000-0  50361-4 0  6062
2 13923  98.4568 207.2942 0016329  59.5398  87.2735 14.28020101577376
NOAA 9 [P]              
1 15427U 84123A   13196.47029188  .00000035  00000-0  39342-4 0  4983
2 15427  98.6243 150.2800 0016118  98.1372  50.5835 14.15598818475637
NOAA 10 [-]             
1 16969U 86073A   13196.52291771  .00000049  00000-0  37464-4 0  4276
2 16969  98.5445 223.7428 0013018 158.1662   7.3260 14.27651391395989
NOAA 11 [-]             
1 19531U 88089A   13196.45284920 -.00000014  00000-0  14976-4 0  4358
2 19531  98.7104 278.8187 0011625 175.5676 246.9825 14.15021863280123
NOAA 12 [-]             
1 21263U 91032A   13196.48150946  .00000028  00000-0  30361-4 0  9005
2 21263  98.6962 221.6420 0014899 135.3957   0.5376 14.25576192152581
NOAA 13 [-]             
1 22739U 93050A   13196.32594897  .00000086  00000-0  69817-4 0  4227
2 22739  98.7445 271.8697 0008484 299.4543 107.1545 14.12412553 27158
NOAA 14 [-]             
1 23455U 94089A   13196.44886139  .00000003  00000-0  24942-4 0  3826
2 23455  98.8027 280.4593 0008372 276.8772 143.1520 14.13913214956369
NOAA 15 [B]             
1 25338U 98030A   13196.45966230  .00000096  00000-0  59603-4 0  8021
2 25338  98.7259 186.5128 0011401  51.5139 111.0338 14.25243022788875
NOAA 16 [B]             
1 26536U 00055A   13196.23524554 -.00000019  00000-0  14052-4 0  2846
2 26536  99.0409 249.2763 0011290  61.2686 338.5747 14.12896871660534
NOAA 17 [-]             
1 27453U 02032A   13196.46085053  .00000078  00000-0  50862-4 0  1980
2 27453  98.3124 209.0430 0012972  85.2094  65.9939 14.24603683574742
NOAA 18 [B]             
1 28654U 05018A   13197.50444990  .00000024  00000-0  38516-4 0  6872
2 28654  99.1018 166.1461 0015323 124.6110  23.5290 14.11839684420191
NOAA 19 [+]             
1 33591U 09005A   13196.46473066  .00000142  00000-0  10252-3 0  8675
2 33591  98.9040 138.3083 0013855 355.0748 142.1981 14.11525310228486
NPP [+]                 
1 37849U 11061A   13197.03782338  .00000739  00000-0  37140-3 0  5314
2 37849  98.7511 135.2229 0001004  37.4500 322.6772 14.19558101 88901


IMAGENS DE SATÉLITES !    Clique e conheça nosso Vídeo Workshop de sensoriamento remoto e imagens meteorológicas.
Apolo11.com - Todos os direitos reservados - 2001 - 2018
Política de Privacidade

"Um tolo com instrução é um tolo maior que um com falta dela." - Benjamim Franklin